Wind_Speed
42 41 41 39 38 36 34 34 32 32 35 34 31 28 26 28 48 46 44 43 45 42 39 37 34 35 35 36 33 29 25 22 17 14 12 10 11 11 10 4 13 16 18 23 28
47 46 45 44 43 41 38 36 34 33 36 39 38 35 34 31 34 49 46 45 47 47 43 40 38 36 36 34 32 30 28 27 23 17 15 17 9 11 10 11 16 19 11 21 28
50 49 48 47 47 46 42 40 37 35 36 40 42 41 38 39 37 42 47 49 47 50 48 44 43 40 38 38 34 30 29 29 23 20 21 18 14 12 6 5 4 14 14 20 24
54 53 52 51 49 49 46 44 42 39 38 40 44 46 45 43 42 42 44 49 50 50 52 51 48 44 42 40 38 35 33 30 24 18 26 20 13 12 5 5 8 7 14 15 19
59 58 58 57 55 53 51 49 48 45 43 42 44 48 50 49 47 46 45 48 50 52 52 52 52 50 46 43 41 38 34 30 28 24 21 16 14 13 3 5 17 18 16 18 20
66 66 65 64 62 59 57 54 52 51 48 47 46 48 53 56 53 49 48 49 49 52 55 55 55 54 50 48 44 42 39 36 33 32 27 21 14 11 7 8 18 26 18 22 21
69 70 70 70 69 67 64 62 58 55 54 52 51 50 53 58 57 55 53 53 52 52 54 56 56 57 57 55 51 48 44 42 39 36 36 33 25 20 18 16 12 23 22 21 18
68 68 71 74 74 73 72 69 66 62 59 57 56 55 55 55 56 59 59 58 55 55 54 54 57 57 58 56 55 54 51 48 43 42 39 36 31 25 22 18 16 18 23 15 17
63 66 69 72 75 77 76 75 73 69 66 63 62 60 58 58 59 60 61 61 60 58 55 55 54 57 59 59 58 58 55 51 50 45 44 42 35 29 24 19 17 16 18 24 23
63 68 65 67 72 76 77 78 78 77 73 70 67 65 62 64 61 61 62 63 63 63 60 57 57 55 56 61 63 60 56 53 52 48 45 45 42 35 25 21 15 21 23 28 19
62 64 68 66 70 71 73 76 80 82 82 77 75 71 69 68 67 64 64 63 63 63 65 62 60 61 59 60 63 61 60 58 58 53 49 44 41 35 31 28 19 26 25 19 16
56 56 55 56 60 69 73 78 78 82 83 83 81 79 78 73 71 69 66 65 64 66 67 64 65 67 63 61 59 59 59 63 62 56 53 49 46 42 40 37 37 34 23 26 17
48 49 46 49 54 64 74 78 76 79 83 85 86 84 81 80 76 74 72 69 67 67 66 67 72 67 64 63 60 59 59 62 62 58 55 52 48 48 45 44 40 36 23 23 19
43 43 44 42 45 54 67 76 80 81 80 84 87 86 88 84 81 82 78 75 73 72 71 70 71 70 68 67 65 61 63 62 59 55 56 57 55 50 52 49 44 42 37 35 26
43 38 38 41 42 47 55 65 82 84 84 82 86 88 89 89 85 86 82 80 79 77 72 73 72 71 71 71 70 69 67 66 59 55 53 54 55 58 56 50 47 45 41 33 33
42 34 32 36 42 46 48 56 66 86 88 87 85 89 90 89 88 90 87 86 83 83 79 78 78 75 74 73 70 72 70 68 64 59 56 57 54 58 57 59 59 54 47 48 43
37 31 27 31 37 44 50 57 60 69 79 90 87 84 87 89 87 90 90 90 89 86 83 81 79 78 78 77 75 76 74 73 70 65 61 63 58 59 62 62 61 58 53 52 45
37 25 21 24 30 43 50 52 51 52 62 76 86 85 84 85 87 88 90 94 91 89 85 83 82 81 77 78 76 76 77 75 73 69 68 70 62 59 63 59 61 61 59 57 52
42 28 18 18 24 33 43 47 49 52 54 61 80 86 84 84 85 91 90 89 89 89 88 86 86 84 81 81 80 80 78 77 75 74 71 72 66 68 69 61 58 57 61 65 63
45 31 22 13 20 26 35 46 48 48 50 53 63 82 84 85 84 86 87 87 86 85 85 85 89 89 88 88 83 82 83 83 80 78 73 72 70 74 75 70 65 59 59 63 62
51 37 24 13 15 22 29 41 48 50 50 53 56 67 79 84 85 85 85 86 86 86 85 85 90 90 94 94 92 90 91 85 81 78 76 74 74 81 77 76 71 62 56 57 58
53 40 27 15 13 20 26 33 43 47 51 53 54 58 62 78 86 86 85 84 85 86 88 90 93 95 95 98 98 98 97 92 88 84 80 75 80 84 84 82 78 69 63 58 60
56 42 32 20 12 18 25 30 36 46 49 50 53 54 57 61 68 82 87 87 86 87 87 89 91 94 95 98 99 100 101 101 97 93 89 85 84 86 88 85 81 75 70 64 60
63 47 34 25 15 15 22 30 34 39 44 50 55 56 57 59 59 62 74 88 92 91 91 91 92 94 96 102 100 98 101 102 101 100 98 95 90 93 93 87 83 77 76 71 62
66 50 32 23 19 17 18 24 32 38 42 45 50 53 57 59 61 61 61 66 80 92 96 95 96 96 98 100 105 103 102 103 101 102 101 101 100 97 99 91 85 80 79 76 70
67 51 37 24 19 19 21 22 26 31 38 44 49 53 58 61 62 63 63 63 64 69 83 94 99 99 101 101 102 104 104 106 105 104 107 104 101 99 100 98 90 84 81 79 77
71 53 37 26 18 18 20 22 26 30 33 38 43 49 52 55 58 60 62 62 64 66 69 74 86 97 103 107 106 102 103 106 107 111 108 105 102 101 99 103 98 91 84 81 83
Wind_Direction
262 263 261 258 257 257 255 254 246 237 230 225 221 212 208 210 212 213 215 213 211 209 209 203 203 204 203 206 205 208 213 217 219 214 230 245 239 247 264 302 244 295 319 326 11
261 260 259 256 254 253 252 250 246 240 231 227 223 218 212 209 211 215 216 216 212 214 212 211 209 206 205 206 209 212 210 212 207 217 226 227 230 269 255 241 250 281 314 341 4
260 259 258 257 252 251 247 247 243 240 236 227 226 224 217 213 205 213 217 219 218 214 215 214 214 209 208 211 208 208 212 214 209 212 225 222 239 245 268 258 209 255 326 328 354
260 258 257 255 252 250 245 241 241 238 236 232 226 226 225 218 215 216 214 218 221 217 217 216 217 214 215 214 213 212 208 211 218 225 227 232 221 226 208 232 275 276 294 304 337
261 258 256 257 254 248 246 241 238 236 235 232 231 226 226 225 217 221 216 216 219 222 220 219 218 217 216 217 216 218 218 221 222 224 211 212 207 191 153 228 212 239 253 285 311
266 261 258 255 252 249 245 243 239 235 233 233 231 229 226 227 220 221 220 218 218 221 222 221 219 219 219 221 220 223 223 223 223 229 219 224 245 208 201 141 197 218 269 303 299
270 264 261 257 252 248 245 243 240 237 233 231 231 230 229 228 223 223 226 222 220 219 221 223 223 222 219 222 224 227 229 227 225 229 233 245 247 244 215 191 226 241 249 269 282
270 267 265 259 253 249 246 243 239 237 235 233 230 230 230 230 227 225 225 226 222 220 220 223 225 223 222 221 223 225 226 230 229 226 232 237 241 239 236 241 225 232 252 261 289
271 269 267 261 256 248 244 242 240 237 235 234 232 230 229 231 229 227 225 226 227 225 223 221 223 226 226 225 222 224 225 228 231 229 230 235 237 234 229 228 235 246 260 275 283
274 266 265 260 254 250 242 238 237 236 234 233 232 232 230 230 230 229 227 226 226 225 225 225 223 224 226 227 225 223 224 225 228 231 235 238 239 234 226 224 224 252 258 272 257
285 272 266 257 251 245 242 236 233 233 233 232 232 231 233 230 229 229 229 228 226 226 226 225 226 224 224 227 227 225 225 225 226 222 226 231 240 228 226 226 219 229 223 266 237
286 275 266 255 246 239 238 235 232 230 231 231 232 231 232 232 230 229 229 230 229 226 226 224 225 225 223 226 228 228 229 228 227 227 224 223 227 227 227 231 214 221 239 226 245
290 280 271 256 247 239 235 234 232 229 228 229 228 230 230 230 230 230 229 229 228 229 227 225 226 227 227 227 227 228 231 231 227 226 227 225 226 227 227 228 228 226 227 231 250
299 282 272 260 250 243 235 230 229 229 227 225 226 227 228 228 229 231 230 229 229 228 227 227 227 225 224 225 227 226 229 232 232 228 226 226 224 223 228 233 231 229 239 240 245
310 287 270 259 250 243 236 231 226 227 228 225 224 225 226 226 227 230 231 231 230 230 229 229 228 227 225 224 225 227 229 231 229 230 229 227 224 224 228 228 232 233 228 227 219
314 297 274 256 244 240 236 231 229 227 227 227 224 224 225 224 225 227 228 230 229 229 227 227 227 227 227 227 226 228 228 231 231 228 227 228 224 226 224 224 229 229 231 229 229
320 306 282 258 241 233 232 229 227 226 227 228 228 225 225 225 224 227 227 228 229 230 229 230 231 229 229 228 225 226 226 229 229 227 224 228 226 226 227 223 226 230 228 230 230
337 317 291 264 244 230 229 231 231 230 226 225 227 229 227 226 225 227 227 227 227 229 229 230 231 230 229 230 231 229 229 227 227 227 227 229 226 227 231 228 226 224 228 232 232
348 336 311 267 246 235 230 230 228 227 226 224 225 228 229 229 228 228 228 228 229 229 229 230 233 233 231 231 230 229 230 231 230 230 227 230 225 222 231 232 229 224 226 228 228
353 348 334 282 242 230 226 225 225 224 224 224 223 224 225 227 227 230 230 230 229 230 229 230 233 233 232 232 230 230 229 229 226 228 228 230 229 229 227 229 230 226 223 228 229
353 351 342 306 247 229 224 221 223 223 221 224 225 224 224 227 228 229 230 229 229 230 228 229 230 230 231 232 231 230 231 229 228 228 226 227 232 232 229 227 230 229 225 225 232
353 352 345 320 262 236 222 224 223 224 224 225 225 225 225 230 230 230 231 231 230 230 231 228 229 230 230 230 230 230 232 230 228 228 227 223 230 230 228 227 227 227 227 224 224
353 349 343 325 283 239 229 224 223 223 225 226 228 229 228 229 231 231 231 232 232 231 229 231 231 235 234 233 231 230 231 231 229 228 226 224 227 231 230 226 224 225 226 226 224
353 352 339 323 298 256 232 227 226 227 226 225 228 229 230 230 230 231 229 231 233 233 232 231 231 232 236 234 231 230 231 231 231 229 228 226 224 229 232 228 226 221 221 222 226
354 351 341 317 297 270 247 236 231 229 228 228 231 233 235 236 235 233 231 230 231 233 234 234 234 232 233 237 236 230 230 230 230 230 228 228 226 227 232 230 227 222 220 217 219
355 352 344 327 297 266 254 244 241 239 239 236 234 235 236 238 239 240 237 235 233 234 234 235 235 235 235 235 237 235 230 231 229 228 228 227 226 225 231 234 229 225 220 216 213
356 354 350 335 308 274 260 254 249 245 241 242 243 243 244 244 245 246 246 245 243 237 235 236 237 236 235 236 235 236 235 232 230 229 227 225 226 224 223 231 231 228 222 215 212
Height
10923 10924 10926 10927 10930 10932 10934 10936 10940 10943 10946 10949 10951 10954 10957 10959 10963 10966 10970 10975 10979 10984 10988 10992 10996 11000 11004 11008 11011 11013 11016 11018 11019 11023 11023 11023 11023 11023 11025 11026 11024 11023 11020 11019 11019
10913 10914 10915 10917 10919 10922 10925 10927 10930 10934 10938 10941 10944 10947 10950 10953 10956 10960 10964 10969 10973 10978 10983 10988 10992 10996 11000 11004 11008 11010 11012 11013 11017 11020 11019 11021 11022 11023 11024 11024 11024 11024 11024 11019 11017
10901 10902 10904 10906 10908 10910 10914 10917 10920 10924 10928 10932 10936 10940 10942 10946 10950 10952 10957 10961 10966 10970 10976 10982 10986 10992 10995 10999 11003 11007 11009 11011 11016 11017 11016 11020 11022 11023 11023 11024 11029 11024 11023 11019 11019
10891 10891 10892 10893 10895 10898 10902 10906 10909 10913 10918 10922 10926 10930 10934 10937 10942 10944 10949 10953 10958 10964 10969 10974 10980 10986 10990 10994 10998 11001 11004 11008 11012 11014 11014 11018 11020 11022 11020 11022 11025 11024 11022 11019 11017
10875 10876 10878 10880 10882 10885 10889 10894 10897 10901 10906 10911 10915 10920 10924 10928 10933 10935 10941 10945 10950 10955 10961 10965 10972 10978 10984 10989 10992 10997 11003 11007 11008 11011 11012 11015 11018 11019 11019 11020 11023 11023 11021 11020 11017
10859 10859 10862 10865 10867 10870 10874 10878 10884 10889 10893 10898 10904 10908 10912 10914 10923 10929 10933 10936 10941 10945 10951 10956 10964 10972 10978 10981 10988 10992 10996 11001 11003 11006 11009 11011 11016 11017 11016 11017 11019 11020 11021 11021 11021
10836 10837 10841 10845 10849 10852 10857 10863 10869 10875 10880 10885 10891 10895 10899 10901 10913 10918 10921 10925 10931 10935 10940 10948 10955 10961 10970 10975 10981 10986 10989 10994 10999 11002 11003 11006 11010 11013 11013 11015 11016 11018 11019 11018 11019
10812 10812 10814 10817 10824 10831 10837 10844 10851 10858 10865 10871 10876 10881 10885 10892 10899 10904 10909 10914 10920 10925 10932 10938 10944 10952 10957 10965 10971 10976 10981 10986 10992 10995 10997 11000 11005 11008 11010 11012 11013 11014 11016 11017 11018
10789 10787 10787 10790 10792 10803 10813 10822 10831 10840 10847 10854 10860 10866 10872 10877 10883 10889 10897 10903 10909 10915 10921 10929 10934 10940 10947 10954 10959 10966 10972 10980 10983 10989 10991 10993 10998 11004 11007 11009 11010 11013 11014 11015 11017
10763 10760 10758 10760 10762 10770 10782 10795 10807 10817 10826 10833 10843 10850 10858 10860 10869 10876 10882 10888 10895 10904 10912 10917 10923 10929 10933 10940 10946 10956 10965 10971 10975 10983 10987 10989 10994 10996 11002 11003 11006 11009 11013 11012 11014
10732 10729 10727 10727 10730 10739 10752 10765 10778 10790 10800 10814 10823 10833 10838 10845 10852 10861 10868 10875 10883 10892 10896 10906 10912 10915 10922 10927 10937 10947 10953 10960 10962 10971 10979 10984 10990 10994 10994 10996 10999 11002 11006 11009 11010
10703 10697 10697 10697 10701 10710 10721 10733 10749 10764 10777 10789 10802 10811 10816 10830 10837 10845 10854 10862 10870 10875 10882 10894 10895 10900 10911 10917 10926 10935 10942 10946 10953 10965 10973 10977 10980 10984 10986 10988 10992 10997 10999 11003 11005
10679 10674 10672 10673 10676 10684 10696 10709 10726 10738 10751 10763 10776 10789 10799 10809 10821 10828 10836 10846 10855 10861 10871 10878 10876 10893 10903 10908 10916 10924 10929 10932 10943 10956 10965 10970 10972 10976 10978 10982 10986 10990 10993 10998 11000
10659 10654 10651 10653 10657 10662 10670 10685 10699 10712 10726 10740 10752 10767 10772 10788 10801 10806 10819 10828 10836 10844 10853 10862 10869 10879 10887 10895 10903 10912 10914 10920 10932 10945 10950 10958 10962 10967 10970 10975 10981 10982 10987 10991 10994
10639 10634 10632 10634 10639 10643 10651 10663 10678 10692 10703 10718 10731 10742 10754 10767 10783 10785 10801 10811 10819 10827 10841 10847 10856 10864 10874 10879 10889 10895 10901 10908 10921 10932 10941 10947 10953 10955 10961 10968 10971 10974 10980 10982 10986
10623 10618 10615 10615 10620 10627 10636 10646 10655 10667 10684 10694 10709 10717 10732 10748 10760 10764 10778 10787 10799 10807 10820 10826 10835 10848 10857 10866 10880 10882 10892 10898 10910 10921 10929 10931 10941 10943 10947 10953 10956 10962 10968 10973 10979
10612 10604 10601 10600 10604 10613 10619 10623 10632 10646 10665 10673 10689 10702 10715 10727 10742 10744 10759 10769 10778 10790 10804 10814 10824 10835 10842 10851 10861 10866 10876 10884 10894 10905 10914 10915 10925 10929 10930 10937 10946 10953 10960 10965 10972
10604 10595 10591 10590 10593 10597 10603 10614 10629 10639 10650 10663 10671 10683 10696 10710 10720 10726 10733 10741 10762 10776 10790 10800 10807 10816 10832 10836 10848 10858 10862 10871 10879 10890 10898 10900 10916 10917 10915 10925 10934 10944 10950 10956 10960
10597 10588 10584 10583 10584 10590 10599 10608 10617 10626 10638 10646 10653 10663 10678 10692 10703 10703 10717 10735 10749 10761 10776 10785 10790 10802 10814 10818 10828 10836 10849 10858 10867 10875 10885 10889 10903 10899 10898 10913 10923 10932 10938 10942 10949
10594 10587 10579 10578 10578 10582 10589 10596 10605 10613 10624 10631 10636 10643 10656 10668 10681 10686 10705 10719 10732 10745 10759 10769 10770 10785 10790 10795 10810 10816 10822 10832 10846 10857 10871 10880 10887 10881 10887 10897 10905 10917 10926 10931 10941
10589 10581 10576 10572 10573 10576 10580 10584 10593 10600 10608 10615 10623 10631 10643 10650 10658 10670 10682 10695 10709 10722 10734 10742 10744 10754 10760 10772 10787 10795 10798 10817 10831 10845 10855 10866 10866 10857 10875 10883 10893 10906 10918 10929 10938
10585 10579 10573 10569 10568 10569 10571 10575 10583 10590 10596 10603 10611 10619 10629 10632 10639 10653 10662 10673 10689 10701 10706 10715 10717 10722 10736 10743 10757 10769 10779 10796 10812 10826 10837 10848 10841 10837 10850 10864 10879 10895 10907 10917 10926
10583 10574 10568 10565 10563 10562 10565 10568 10571 10575 10584 10593 10600 10606 10611 10614 10621 10635 10646 10654 10665 10673 10684 10692 10703 10705 10717 10722 10736 10749 10757 10769 10788 10800 10814 10822 10819 10824 10831 10849 10868 10885 10898 10908 10915
10578 10569 10563 10558 10557 10556 10557 10558 10563 10566 10574 10577 10580 10585 10593 10599 10606 10612 10623 10631 10639 10648 10659 10667 10677 10683 10686 10691 10708 10724 10734 10747 10764 10778 10790 10795 10805 10795 10806 10835 10854 10876 10887 10898 10909
10575 10564 10556 10551 10549 10549 10549 10551 10553 10556 10560 10566 10570 10576 10578 10583 10588 10595 10602 10610 10618 10624 10633 10644 10650 10660 10664 10667 10676 10698 10710 10722 10741 10752 10762 10769 10777 10781 10791 10817 10836 10858 10871 10886 10898
10571 10558 10549 10544 10542 10541 10541 10543 10544 10547 10550 10554 10557 10560 10562 10567 10572 10578 10584 10592 10600 10605 10611 10617 10627 10636 10641 10646 10650 10670 10688 10694 10708 10715 10728 10742 10761 10768 10786 10800 10822 10837 10855 10870 10882
10564 10553 10543 10537 10534 10534 10534 10535 10536 10537 10539 10541 10544 10547 10550 10555 10559 10563 10567 10574 10577 10585 10592 10594 10599 10606 10615 10616 10627 10644 10652 10663 10673 10680 10699 10719 10738 10749 10770 10777 10797 10816 10837 10853 10865